This is the latest recevied weather packets stored in our database for station/object N6WDO. If no packets are shown the sender has not sent any weather packets the latest 10 day(s).
| Time | Temp. | Humidity | Pressure | Rain* | Wind** | Luminosity | Snow |
|---|---|---|---|---|---|---|---|
| 1777602555 | 20.56° C | 51% | 1013.7 hPa | 0 mm | - | 11 W/m² | - |
| 1777602251 | 21.11° C | 51% | 1013.7 hPa | 0 mm | - | 14 W/m² | - |
| 1777601946 | 21.67° C | 49% | 1013.6 hPa | 0 mm | - | 16 W/m² | - |
| 1777601641 | 21.67° C | 49% | 1013.8 hPa | 0 mm | - | 19 W/m² | - |
| 1777601337 | 22.22° C | 48% | 1013.7 hPa | 0 mm | - | 20 W/m² | - |
| 1777601034 | 22.22° C | 48% | 1013.8 hPa | 0 mm | - | 23 W/m² | - |
| 1777600731 | 22.78° C | 46% | 1013.6 hPa | 0 mm | - | 24 W/m² | - |
| 1777600427 | 22.78° C | 48% | 1013.5 hPa | 0 mm | - | 26 W/m² | - |
| 1777600122 | 22.78° C | 47% | 1013.5 hPa | 0 mm | - | 28 W/m² | - |
| 1777599818 | 23.33° C | 46% | 1013.3 hPa | 0 mm | - | 29 W/m² | - |
| 1777599514 | 23.33° C | 45% | 1013.6 hPa | 0 mm | - | 31 W/m² | - |
| 1777599211 | 23.33° C | 43% | 1013.5 hPa | 0 mm | - | 32 W/m² | - |
| 1777598906 | 23.89° C | 44% | 1013.3 hPa | 0 mm | - | 33 W/m² | - |
| 1777598604 | 23.89° C | 46% | 1013.7 hPa | 0 mm | - | 34 W/m² | - |
| 1777598300 | 23.89° C | 43% | 1013.6 hPa | 0 mm | - | 35 W/m² | - |
| 1777597998 | 23.89° C | 43% | 1013.4 hPa | 0 mm | - | 36 W/m² | - |
| 1777597697 | 23.89° C | 43% | 1013.4 hPa | 0 mm | - | 37 W/m² | - |
| 1777597394 | 24.44° C | 41% | 1013.5 hPa | 0 mm | - | 38 W/m² | - |
| 1777597089 | 24.44° C | 45% | 1013.7 hPa | 0 mm | - | 48 W/m² | - |
| 1777596786 | 25° C | 43% | 1013.5 hPa | 0 mm | - | 54 W/m² | - |
| 1777596482 | 25° C | 42% | 1013.4 hPa | 0 mm | - | 53 W/m² | - |
| 1777596179 | 25° C | 43% | 1013.2 hPa | 0 mm | - | 42 W/m² | - |
| 1777595875 | 25° C | 43% | 1013.4 hPa | 0 mm | - | 53 W/m² | - |
| 1777595570 | 25° C | 42% | 1013.6 hPa | 0 mm | - | 56 W/m² | - |
| 1777595266 | 25.56° C | 41% | 1013.6 hPa | 0 mm | - | 48 W/m² | - |
* Rain latest hour (hover to see other rain measurements)
** Current wind speed in m/s (hover to see current wind gust speed)